User: anonymous   Login
Location: Unspecified
(0.0000°N, 0.0000°E)
Time: 17:56:12
(UTC+00:00)
Language:

Okean 3 - Orbit

View from above orbital plane
View from above orbital plane
View from above satellite
View from above satellite

Ground track
Ground track

The orbit data is extracted from the following two-line orbital elements,

1 21397U 91039A   18113.72060056  .00000218  00000-0  18622-4 0  9998
2 21397  82.5244 203.3980 0016301 279.2193  80.7183 14.92653561456103
Epoch (UTC): 23 April 2018 17:17:39
Eccentricity: 0.0016301
inclination: 82.5244°
perigee height: 578 km
apogee height: 601 km
right ascension of ascending node: 203.3980°
argument of perigee: 279.2193°
revolutions per day: 14.92653561
mean anomaly at epoch: 80.7183°
orbit number at epoch: 45610

The dashed part of the orbit path shows where the satellite is in the earth's shadow,  

DLR